Flag Weather past 2 weeks in Vilnius, Lithuania

Now
25 °F

Ice fog.


Feels Like: 15 °F
Forecast: 16 / 23 °F
Wind: 9 mph from Southeast

Location: Vilnius Airport

Current Time: Nov 26, 2014 at 4:33:29 PM

Latest Report: Nov 26, 2014 at 3:50 PM


Visibility: 2 mi

Pressure: 30.33 "Hg

Humidity: 100%

Dew point: 25 °F

Location of VilniusLocation

Historic Weather in Vilnius — Graph

°F

Vilnius temperature yesterday

Maximum temperature yesterday: 30 °F (at 8:50 AM)
Minimum temperature yesterday: 27 °F (at 12:20 AM)
Average temperature yesterday: 28 °F

Past Weeks' High & Low Weather Summary

 TemperatureHumidityPressure
High48 °F (Nov 11, 3:20 PM)100% (Nov 20, 7:20 PM)30.54 "Hg (Nov 20, 7:20 PM)
Low23 °F (Nov 24, 6:50 AM)55% (Nov 18, 3:50 PM)30.07 "Hg (Nov 11, 5:20 PM)
Average34 °F88%30.27 "Hg
* Reported Nov 11 3:20 PM — Nov 26 3:20 PM, Vilnius, Weather by CustomWeather, © 2014

Note: Actual official high and low records may vary slightly from our data, if they occured in-between our weather recording intervals... More about our weather records

Advertising

Vilnius weather history for previous 24 hours

 ConditionsComfort  
Time TempWeatherWind HumidityBarometerVisibility
3:20 PM
Nov 26
27 °FIce fog.9 mph93%30.33 "Hg2 mi
2:50 PM27 °FIce fog.9 mph93%30.36 "Hg2 mi
2:20 PM27 °FLight snow. Ice fog.9 mph93%30.36 "Hg2 mi
1:50 PM27 °FIce fog.8 mph93%30.36 "Hg2 mi
1:20 PM27 °FIce fog.8 mph93%30.36 "Hg2 mi
12:50 PM27 °FIce fog.7 mph93%30.36 "Hg2 mi
12:20 PM27 °FIce fog.8 mph93%30.36 "Hg2 mi
11:20 AM27 °FIce fog.8 mph93%30.36 "Hg2 mi
10:50 AM27 °FIce fog.10 mph93%30.36 "Hg2 mi
10:20 AM27 °FLight snow. Ice fog.8 mph93%30.36 "Hg2 mi
9:50 AM27 °FLight snow. Ice fog.7 mph93%30.36 "Hg2 mi
9:20 AM27 °FLight snow. Ice fog.9 mph93%30.36 "Hg1 mi
8:50 AM27 °FLight snow. Ice fog.6 mph100%30.36 "Hg2 mi
8:20 AM27 °FLight snow. Ice fog.8 mph100%30.36 "Hg1 mi
7:50 AM27 °FLight snow. Ice fog.7 mph100%30.36 "Hg1 mi
7:20 AM27 °FLight snow. Ice fog.8 mph100%30.36 "Hg2 mi
6:50 AM27 °FLight snow. Ice fog.7 mph100%30.36 "Hg2 mi
6:20 AM27 °FLight snow. Ice fog.9 mph100%30.36 "Hg2 mi
5:20 AM27 °FIce fog.10 mph100%30.36 "Hg1 mi
4:50 AM27 °FIce fog.8 mph100%30.36 "Hg2 mi
4:20 AM27 °FIce fog.7 mph100%30.36 "Hg2 mi
3:50 AM27 °FIce fog.9 mph100%30.36 "Hg2 mi
3:20 AM27 °FIce fog.9 mph100%30.36 "Hg1 mi
2:50 AM27 °FIce fog.9 mph100%30.36 "Hg1 mi
2:20 AM27 °FIce fog.9 mph100%30.39 "Hg1 mi
1:50 AM27 °FIce fog.7 mph100%30.39 "Hg1 mi
1:20 AM27 °FIce fog.7 mph100%30.39 "Hg1 mi
12:50 AM27 °FIce fog.8 mph100%30.39 "Hg2 mi
12:20 AM27 °FIce fog.10 mph100%30.39 "Hg2 mi
11:50 PM
Nov 25
27 °FIce fog.9 mph100%30.39 "Hg2 mi
11:20 PM27 °FIce fog.10 mph100%30.39 "Hg1 mi
10:50 PM27 °FIce fog.13 mph100%30.39 "Hg2 mi
10:20 PM27 °FIce fog.13 mph100%30.39 "Hg2 mi
9:50 PM27 °FIce fog.12 mph100%30.39 "Hg2 mi
9:20 PM27 °FIce fog.12 mph100%30.39 "Hg2 mi
8:50 PM27 °FLight snow. Ice fog.12 mph100%30.39 "Hg2 mi
8:20 PM27 °FIce fog.12 mph100%30.39 "Hg2 mi
7:50 PM28 °FIce fog.9 mph100%30.39 "Hg1 mi
7:20 PM28 °FIce fog.10 mph100%30.36 "Hg1 mi
6:50 PM28 °FIce fog.10 mph100%30.36 "Hg2 mi
6:20 PM28 °FLight freezing rain. Ice fog.9 mph100%30.36 "Hg2 mi
5:58 PM28 °FLight freezing rain. Ice fog.12 mph100%30.36 "Hg1 mi
5:20 PM28 °FIce fog.9 mph100%30.36 "Hg1 mi
4:50 PM28 °FIce fog.10 mph100%30.36 "Hg2 mi
4:20 PM28 °FIce fog.10 mph100%30.36 "Hg2 mi
Weather by CustomWeather, © 2014

See weather overviewHow to use our weather pages